Location: Keppel Henge
(44.7900°N, 80.9447°W)
Time: 18:50:53
(UTC-04:00)

Envisat - Visible Passes

Search period start: 21 April 2018 00:00
Search period end: 01 May 2018 00:00
Orbit: 764 x 766 km, 98.2° (Epoch: 21 April)

Date Brightness Start Highest point End Pass type
(mag) Time Alt. Az. Time Alt. Az. Time Alt. Az.
21 Apr 5.2 21:47:52 10° SW 21:51:53 23° W 21:55:55 10° NW visible
22 Apr 4.0 21:10:00 10° S 21:14:54 49° W 21:19:51 10° NNW visible
23 Apr 5.7 22:15:17 10° WSW 22:17:45 14° W 22:20:15 10° WNW visible
24 Apr 4.9 21:36:16 10° SSW 21:40:38 29° W 21:45:03 10° NW visible
25 Apr 3.6 20:58:42 10° S 21:03:43 62° W 21:08:47 10° NNW visible
26 Apr 5.6 22:03:11 10° SW 22:06:28 17° W 22:09:46 10° NW visible
27 Apr 4.5 21:24:46 10° SSW 21:29:25 36° W 21:34:06 10° NNW visible
29 Apr 5.4 21:51:22 10° SW 21:55:12 21° W 21:59:04 10° NW visible
30 Apr 4.1 21:13:22 10° S 21:18:12 45° W 21:23:05 10° NNW visible
